Regional Weather Roundup
Issued by NWS

Home | Current Version | Previous Version | Text Only | Print | Product List | Glossary Off
Versions: 1 2 3 4 5 6 7 8 9 10 11 12 13 14 15 16 17 18 19 20 21 22 23 24 25 26 27 28 29 30 31 32 33 34 35 36 37 38 39 40 41 42 43 44 45 46 47 48 49 50

000
ASUS45 KABQ 211201
RWRNM
WEATHER ROUNDUP FOR NEW MEXICO
NATIONAL WEATHER SERVICE ALBUQUERQUE NM
500 AM MST SUN DEC 21 2014

NOTE: "FAIR" MEANS FEW OR NO CLOUDS BELOW 12,000 FEET AGL WITH NO
       SIGNIFICANT WEATHER OR OBSTRUCTIONS TO VISION.

      THIS PRODUCT IS RELEASED AS TWO VERSIONS.  ONE VERSION NEAR
      THE TOP OF THE HOUR CONTAINING PRELIMINARY DATA FROM ALBUQUERQUE
      AND OTHER STATIONS.  A FINAL VERSION WITH ADDITIONAL DATA IS
      ISSUED ABOUT 10 MINUTES AFTER THE HOUR.

NMZ501-503-504-510>518-211300-
NORTHWEST PLATEAU/NORTHCENTRAL MOUNTAINS

CITY           SKY/WX    TMP DP  RH WIND       PRES   REMARKS
FARMINGTON     CLEAR     29  27  92 SW5       30.05F WCI  24
6HR MIN TEMP:  29; 6HR MAX TEMP:  34;

SANTA FE       CLOUDY    33  23  66 N15       30.01F WCI  23
6HR MIN TEMP:  30; 6HR MAX TEMP:  34;

TAOS           PTCLDY    25  19  80 SW5       30.02F WCI  19

$$
NMZ402-403-502-505>509-211300-
WESTCENTRAL MOUNTAINS/SOUTHWEST MOUNTAINS

CITY           SKY/WX    TMP DP  RH WIND       PRES   REMARKS
GALLUP         CLOUDY    28  24  85 CALM      30.10F
6HR MIN TEMP:  25; 6HR MAX TEMP:  31;

GRANTS         CLOUDY    28  24  85 NW13      30.10S WCI  17
SILVER CITY    CLEAR     36  28  75 N12       30.09S WCI  27

$$
NMZ407-409-411-412-211300-
SOUTHERN DESERTS

CITY           SKY/WX    TMP DP  RH WIND       PRES   REMARKS
LORDSBURG      FAIR      32  30  93 NW3       30.10R
DEMING         CLEAR     34  28  79 SW5       30.07S WCI  30
6HR MIN TEMP:  32; 6HR MAX TEMP:  38;

HOLLOMAN AFB   MOCLDY    30  24  79 E3        30.03F
ALAMOGORDO     PTCLDY    32  23  69 CALM      30.05S
T OR C         CLEAR     34  23  64 NW6       30.04S WCI  29
6HR MIN TEMP:  33; 6HR MAX TEMP:  39;


$$
NMZ519>523-211300-
CENTRAL VALLEYS/CENTRAL HIGHLANDS

CITY           SKY/WX    TMP DP  RH WIND       PRES   REMARKS
ALBUQUERQUE    MOCLDY    37  26  64 N5        30.06F WCI  33
6HR MIN TEMP:  29; 6HR MAX TEMP:  37;

MORIARTY ARPT  FAIR      32  23  68 N7        30.02S WCI  26
6HR MIN TEMP:  26; 6HR MAX TEMP:  36;

CLINES CORNERS CLEAR     30  21  69 NW30G39   29.92F WCI  15
6HR MIN TEMP:  28; 6HR MAX TEMP:  34;

BELEN          FAIR      25  23  93 CALM      30.06F
6HR MIN TEMP:  25; 6HR MAX TEMP:  31;

SOCORRO        FAIR      27  22  82 CALM      30.06F
6HR MIN TEMP:  27; 6HR MAX TEMP:  34;


$$
NMZ524>526-539-540-211300-
SOUTHCENTRAL MOUNTAINS

CITY           SKY/WX    TMP DP  RH WIND       PRES   REMARKS
RUIDOSO        CLEAR     32  18  55 N8        30.04R WCI  25

$$
NMZ527>531-211300-
NORTHEAST HIGHLANDS/NORTHEAST PLAINS

CITY           SKY/WX    TMP DP  RH WIND       PRES   REMARKS
LAS VEGAS      PTCLDY    22  15  75 CALM      29.90F
6HR MIN TEMP:  22; 6HR MAX TEMP:  32;

RATON          PTCLDY    22  14  71 NE8       29.85F WCI  12
6HR MIN TEMP:  19; 6HR MAX TEMP:  27;

CLAYTON        CLEAR     34  20  56 W8        29.82F WCI  27
6HR MIN TEMP:  31; 6HR MAX TEMP:  39;


$$
NMZ532>537-211300-
EASTCENTRAL PLAINS

CITY           SKY/WX    TMP DP  RH WIND       PRES   REMARKS
TUCUMCARI      CLEAR     26  19  74 W9        29.85F WCI  17
6HR MIN TEMP:  23; 6HR MAX TEMP:  34;

CANNON AFB     NOT AVBL
CLOVIS AIRPORT CLEAR     37  21  52 W17       29.87S WCI  28

$$
NMZ028-029-538-211300-
SOUTHEAST PLAINS

CITY           SKY/WX    TMP DP  RH WIND       PRES   REMARKS
ROSWELL        PTCLDY    30  22  72 SW3       29.96S
6HR MIN TEMP:  29; 6HR MAX TEMP:  37;

ARTESIA        MOCLDY    34  25  69 S5        29.97S WCI  30
CARLSBAD       MOCLDY    32  24  72 N3        29.96F
6HR MIN TEMP:  31; 6HR MAX TEMP:  44;

HOBBS          FOG       32  32 100 S6        29.97S VSB 1/2 WCI  26


$$


USA.gov is the U.S. government's official web portal to all federal, state and local government web resources and services.